Location: Agadir Mansour Mhndou
(31.2424°N, 8.7730°W)
Time: 19:45:52
(UTC+00:00)

Delta 2 Rocket - Pass Details

Date: 16 October 2021
Orbit: 415 x 797 km, 35.6° (Epoch: 07 December)

Event Time Altitude Azimuth Distance (km) Brightness Sun altitude
Rises 19:31:12 0° 234° (SW) 2,354 7.4 -19.8°
Reaches altitude 10° 19:33:23 10° 227° (SW) 1,477 6.1 -20.3°
Enters shadow 19:35:49 36° 191° (S) 671 3.8 -20.8°
